TimePDT,TemperatureF,Dew PointF,Humidity,Sea Level PressureIn,VisibilityMPH,Wind Direction,Wind SpeedMPH,Gust SpeedMPH,PrecipitationIn,Events,Conditions,WindDirDegrees,DateUTC
12:15 AM,53.6,24.8,33,30.22,7.0,West,10.4,-,N/A,,Clear,280,2013-08-03 07:15:00
12:35 AM,53.6,26.6,35,30.22,7.0,West,10.4,-,N/A,,Scattered Clouds,270,2013-08-03 07:35:00
12:55 AM,53.6,24.8,33,30.22,7.0,West,3.5,-,N/A,,Clear,280,2013-08-03 07:55:00
1:15 AM,53.6,24.8,33,30.21,7.0,Calm,Calm,-,N/A,,Clear,0,2013-08-03 08:15:00
1:35 AM,50.0,24.8,37,30.21,7.0,Calm,Calm,-,N/A,,Clear,0,2013-08-03 08:35:00
1:55 AM,50.0,24.8,37,30.22,7.0,Calm,Calm,-,N/A,,Clear,0,2013-08-03 08:55:00
2:15 AM,50.0,24.8,37,30.22,7.0,Calm,Calm,-,N/A,,Clear,0,2013-08-03 09:15:00
2:35 AM,48.2,26.6,43,30.21,7.0,Calm,Calm,-,N/A,,Clear,0,2013-08-03 09:35:00
2:55 AM,48.2,24.8,40,30.21,7.0,North,3.5,-,N/A,,Clear,360,2013-08-03 09:55:00
3:15 AM,48.2,24.8,40,30.21,10.0,NW,3.5,-,N/A,,Clear,320,2013-08-03 10:15:00
3:35 AM,48.2,24.8,40,30.21,10.0,North,3.5,-,N/A,,Clear,10,2013-08-03 10:35:00
3:55 AM,46.4,24.8,43,30.21,10.0,NNW,4.6,-,N/A,,Clear,340,2013-08-03 10:55:00
4:15 AM,44.6,24.8,46,30.21,10.0,NNW,3.5,-,N/A,,Clear,340,2013-08-03 11:15:00
4:35 AM,42.8,24.8,49,30.21,10.0,Calm,Calm,-,N/A,,Clear,0,2013-08-03 11:35:00
4:55 AM,42.8,23.0,46,30.21,10.0,NNW,4.6,-,N/A,,Clear,330,2013-08-03 11:55:00
5:15 AM,42.8,24.8,49,30.21,10.0,NW,5.8,-,N/A,,Clear,320,2013-08-03 12:15:00
5:35 AM,42.8,24.8,49,30.22,10.0,Calm,Calm,-,N/A,,Clear,0,2013-08-03 12:35:00
5:55 AM,41.0,23.0,49,30.22,10.0,NNW,4.6,-,N/A,,Clear,330,2013-08-03 12:55:00
6:15 AM,41.0,23.0,49,30.23,10.0,NNW,4.6,-,N/A,,Clear,340,2013-08-03 13:15:00
6:35 AM,39.2,23.0,52,30.23,10.0,North,4.6,-,N/A,,Clear,350,2013-08-03 13:35:00
6:55 AM,41.0,24.8,53,30.23,10.0,Calm,Calm,-,N/A,,Clear,0,2013-08-03 13:55:00
7:15 AM,46.4,24.8,43,30.23,10.0,Calm,Calm,-,N/A,,Clear,0,2013-08-03 14:15:00
7:35 AM,50.0,24.8,37,30.23,10.0,Calm,Calm,-,N/A,,Clear,0,2013-08-03 14:35:00
7:55 AM,53.6,24.8,33,30.23,10.0,Calm,Calm,-,N/A,,Clear,0,2013-08-03 14:55:00
8:15 AM,57.2,26.6,31,30.24,10.0,SE,6.9,-,N/A,,Clear,130,2013-08-03 15:15:00
8:35 AM,59.0,26.6,29,30.24,10.0,SE,4.6,-,N/A,,Clear,140,2013-08-03 15:35:00
8:55 AM,60.8,28.4,29,30.24,10.0,SE,4.6,-,N/A,,Clear,140,2013-08-03 15:55:00
9:15 AM,64.4,24.8,22,30.24,10.0,Calm,Calm,-,N/A,,Clear,0,2013-08-03 16:15:00
9:35 AM,66.2,24.8,21,30.23,10.0,SSE,4.6,-,N/A,,Clear,150,2013-08-03 16:35:00
9:55 AM,66.2,26.6,23,30.23,10.0,SSE,5.8,-,N/A,,Clear,150,2013-08-03 16:55:00
10:15 AM,68.0,24.8,20,30.23,10.0,South,8.1,-,N/A,,Clear,170,2013-08-03 17:15:00
10:35 AM,71.6,19.4,14,30.23,10.0,SSE,6.9,-,N/A,,Clear,150,2013-08-03 17:35:00
10:55 AM,73.4,21.2,14,30.22,10.0,ESE,5.8,-,N/A,,Clear,110,2013-08-03 17:55:00
11:15 AM,73.4,21.2,14,30.22,10.0,East,8.1,-,N/A,,Clear,90,2013-08-03 18:15:00
11:35 AM,75.2,21.2,13,30.22,10.0,ESE,8.1,-,N/A,,Clear,120,2013-08-03 18:35:00
11:55 AM,75.2,21.2,13,30.22,10.0,ESE,9.2,16.1,N/A,,Clear,110,2013-08-03 18:55:00
12:15 PM,77.0,21.2,12,30.22,10.0,ESE,10.4,19.6,N/A,,Clear,120,2013-08-03 19:15:00
12:35 PM,78.8,21.2,12,30.22,10.0,ESE,8.1,16.1,N/A,,Clear,120,2013-08-03 19:35:00
12:55 PM,78.8,21.2,12,30.21,10.0,ESE,8.1,-,N/A,,Clear,120,2013-08-03 19:55:00
1:15 PM,78.8,21.2,12,30.21,10.0,ESE,11.5,-,N/A,,Clear,110,2013-08-03 20:15:00
1:35 PM,80.6,21.2,11,30.21,10.0,ESE,11.5,18.4,N/A,,Clear,120,2013-08-03 20:35:00
1:55 PM,80.6,23.0,12,30.21,10.0,ESE,11.5,19.6,N/A,,Clear,110,2013-08-03 20:55:00
2:15 PM,80.6,23.0,12,30.20,10.0,SE,10.4,16.1,N/A,,Clear,130,2013-08-03 21:15:00
2:35 PM,80.6,23.0,12,30.20,10.0,ESE,11.5,19.6,N/A,,Clear,110,2013-08-03 21:35:00
2:55 PM,80.6,23.0,12,30.20,10.0,ESE,12.7,18.4,N/A,,Clear,120,2013-08-03 21:55:00
3:15 PM,80.6,21.2,11,30.20,10.0,ESE,8.1,18.4,N/A,,Clear,120,2013-08-03 22:15:00
3:35 PM,80.6,21.2,11,30.19,10.0,SSE,5.8,-,N/A,,Clear,150,2013-08-03 22:35:00
3:55 PM,80.6,21.2,11,30.19,10.0,East,8.1,17.3,N/A,,Clear,100,2013-08-03 22:55:00
4:15 PM,80.6,21.2,11,30.19,10.0,East,3.5,-,N/A,,Clear,100,2013-08-03 23:15:00
4:35 PM,78.8,21.2,12,30.19,10.0,South,8.1,-,N/A,,Scattered Clouds,180,2013-08-03 23:35:00
4:55 PM,78.8,24.8,14,30.19,7.0,NW,12.7,24.2,N/A,,Mostly Cloudy,310,2013-08-03 23:55:00
5:15 PM,78.8,24.8,14,30.19,7.0,West,19.6,28.8,N/A,,Overcast,280,2013-08-04 00:15:00
5:35 PM,77.0,24.8,14,30.19,7.0,WNW,16.1,24.2,N/A,,Mostly Cloudy,290,2013-08-04 00:35:00
5:55 PM,77.0,24.8,14,30.18,7.0,WNW,12.7,27.6,N/A,,Mostly Cloudy,290,2013-08-04 00:55:00
6:15 PM,75.2,24.8,15,30.19,7.0,WNW,17.3,24.2,N/A,,Mostly Cloudy,290,2013-08-04 01:15:00
6:35 PM,73.4,24.8,16,30.18,7.0,NNW,8.1,24.2,N/A,,Mostly Cloudy,340,2013-08-04 01:35:00
6:55 PM,73.4,26.6,18,30.19,7.0,NW,13.8,18.4,N/A,,Scattered Clouds,310,2013-08-04 01:55:00
7:15 PM,71.6,24.8,17,30.19,7.0,NNW,5.8,-,N/A,,Scattered Clouds,330,2013-08-04 02:15:00
7:35 PM,69.8,24.8,18,30.20,7.0,NNW,9.2,-,N/A,,Overcast,330,2013-08-04 02:35:00
7:55 PM,68.0,24.8,20,30.20,7.0,NNW,5.8,-,N/A,,Overcast,340,2013-08-04 02:55:00
8:15 PM,66.2,26.6,23,30.21,7.0,West,5.8,-,N/A,,Scattered Clouds,260,2013-08-04 03:15:00
8:35 PM,64.4,26.6,24,30.22,10.0,West,4.6,-,N/A,,Clear,260,2013-08-04 03:35:00
8:55 PM,64.4,26.6,24,30.23,10.0,Calm,Calm,-,N/A,,Clear,0,2013-08-04 03:55:00
9:15 PM,62.6,26.6,26,30.24,10.0,Calm,Calm,-,N/A,,Mostly Cloudy,0,2013-08-04 04:15:00
9:35 PM,57.2,26.6,31,30.24,10.0,Calm,Calm,-,N/A,,Overcast,0,2013-08-04 04:35:00
9:55 PM,57.2,26.6,31,30.25,10.0,Calm,Calm,-,N/A,,Overcast,0,2013-08-04 04:55:00
10:15 PM,57.2,24.8,29,30.25,10.0,Calm,Calm,-,N/A,,Overcast,0,2013-08-04 05:15:00
10:35 PM,57.2,26.6,31,30.25,10.0,Calm,Calm,-,N/A,,Overcast,0,2013-08-04 05:35:00
10:55 PM,53.6,24.8,33,30.25,10.0,Calm,Calm,-,N/A,,Overcast,0,2013-08-04 05:55:00
11:15 PM,50.0,24.8,37,30.25,10.0,NNW,3.5,-,N/A,,Mostly Cloudy,340,2013-08-04 06:15:00
11:35 PM,46.4,24.8,43,30.26,10.0,Calm,Calm,-,N/A,,Scattered Clouds,0,2013-08-04 06:35:00
11:55 PM,50.0,26.6,40,30.26,10.0,North,3.5,-,N/A,,Scattered Clouds,350,2013-08-04 06:55:00